Regional Weather Roundup
Issued by NWS Jackson, KY

Home | Current Version | Previous Version | Text Only | Print | Product List | Glossary On
Versions: 1 2 3 4 5 6 7 8 9 10 11 12 13 14 15 16 17 18 19 20 21 22 23 24 25 26 27 28
000
ASUS43 KJKL 180810
RWRJKL

EAST KENTUCKY HOURLY WEATHER ROUNDUP
NATIONAL WEATHER SERVICE JACKSON KY
300 AM EST SAT NOV 18 2017

NOTE: "FAIR" INDICATES FEW OR NO CLOUDS BELOW 12,000 FEET WITH
NO SIGNIFICANT WEATHER AND/OR OBSTRUCTIONS TO VISIBILITY.

* THESE REPORTS ARE NOT UNDER NWS QUALITY CONTROL AND MAY NOT
  REPORT WEATHER SUCH AS PRECIPITATION AND FOG.

KYZ079-080-083-085-087-088-110-112-115-119-120-180900
...EASTERN KENTUCKY...

CITY           SKY/WX    TMP DP  RH WIND       PRES   REMARKS
JACKSON        MOCLDY    55  33  43 VRB7      29.84F
LONDON         CLOUDY    56  36  47 S8        29.88S
SOMERSET*      CLOUDY    57  37  47 S8        29.90R
MONTICELLO*    CLOUDY    59  39  47 VRB6      29.90S
WILLIAMSBURG*  PTSUNNY   57  37  47 SW10G20   29.90R
MIDDLESBORO*   CLOUDY    55  37  51 S8        29.96R
HARLAN APT*    CLOUDY    55  30  38 CALM      29.94S
PIKE CO APT*   CLOUDY    54  30  40 S10       29.86F
BIG SANDY APT* CLOUDY    55  30  39 S12       29.84F
MOREHEAD APT*  CLOUDY    55  34  44 S12       29.82S
$$

KYZ035-036-041-042-044-050-067-078-099-180900
...CENTRAL KENTUCKY...

CITY           SKY/WX    TMP DP  RH WIND       PRES   REMARKS
MT STERLING*   CLOUDY    55  37  50 SW16G22   29.80F
FLEMING/MASON* CLOUDY    55  37  52 S16G22    29.76F
DANVILLE*      CLOUDY    55  37  50 S15G23    29.81F
LEXINGTON      CLOUDY    58  39  49 S17G32    29.75F
FRANKFORT      RAIN      56  41  57 S18G30    29.74F
LOUISVILLE     CLOUDY    62  40  44 S20G30    29.71F
LEBANON*         N/A     59  37  44 S20G32    29.77F
GLASGOW*       CLOUDY    60  42  50 S15G30    29.80F
BOWLING GREEN  CLOUDY    61  43  51 S23G31    29.79F
$$

KYZ091>093-OHZ055-061-077-WVZ005-015-034-035-042-180900
...SOUTHERN OHIO/WEST VIRGINIA...

CITY           SKY/WX    TMP DP  RH WIND       PRES   REMARKS
COVINGTON      LGT RAIN  53  44  71 S15G28    29.69F
COLUMBUS       CLOUDY    46  39  76 SE5       29.70F
DAYTON         CLOUDY    49  42  77 S16G28    29.66F
WILMINGTON     CLOUDY    51  39  63 S17       29.67F
HUNTINGTON     CLOUDY    53  27  36 S12G18    29.80F
CHARLESTON     CLOUDY    42  31  64 NW3       29.83F
PINEVILLE*     MIX PCPN  41  36  83 MISG      29.96F
BECKLEY        CLOUDY    46  25  43 SE13      29.91F
BLUEFIELD      PTCLDY    50  21  32 S10G20    29.93F
LOGAN CO APT*  CLOUDY    54  27  35 VRB7G15   29.87S
$$

VAZ002-007-008-TNZ017-027-036-066-071-180900
...SOUTHWEST VIRGINIA/EAST TENNESSEE...

CITY           SKY/WX    TMP DP  RH WIND       PRES   REMARKS
WISE*          CLOUDY    50  32  50 S7        29.95F
JONESVILLE*    PTSUNNY   39  37  93 CALM      30.00S
ABINGDON*      CLOUDY    45  34  65 SE3       29.98R
BRISTOL        CLOUDY    42  37  82 CALM      29.97F
MORRISTOWN*    SUNNY     45  37  76 CALM      29.97S
SEVIERVILLE*   SUNNY     41  37  87 CALM      29.98S
KNOXVILLE      CLOUDY    45  42  89 E5        29.96S
LAFOLLETTE*    CLOUDY    57  39  51 VRB7      29.98S
OAK RIDGE      MOCLDY    50  41  71 VRB3      29.99S
CROSSVILLE     CLOUDY    52  37  56 S13G21    29.96S
NASHVILLE      CLOUDY    60  43  53 S17       29.84F
$$

...KEY TO REMARKS...
VSB - VISIBILITY IN MILES
WCI - WIND CHILL INDEX
HX  - HEAT INDEX

$$




USA.gov is the U.S. government's official web portal to all federal, state and local government web resources and services.